Sterling, IL

11:01 AM CST on November 12, 2019 (GMT -0600)
Whiteside County-Bittorf

Weather History for KSQI - September, 2019

Change the Weather History Date:

Saturday, September 7, 2019

  Actual Average Record
Temperature  
Mean Temperature 64 °F -  
Max Temperature 79 °F 77 °F 93 °F (2013)
Min Temperature 51 °F 53 °F 46 °F (2011)
Growing Degree Days 14 (Base 50)    
Moisture  
Dew Point 58 °F    
Average Humidity 85    
Maximum Humidity 100    
Minimum Humidity 58    
Precipitation  
Precipitation 0.01 in - - ()
Sea Level Pressure  
Sea Level Pressure 29.74 in    
Wind  
Wind Speed 3 mph ()    
Max Wind Speed 13 mph    
Max Gust Speed -    
Visibility 8.2 miles    
Events Fog , Rain    
Averages and records for this station are not official NWS values.
T = Trace of Precipitation, MM = Missing Value Source: Averaged Metar Reports

Daily Weather History Graph

Daily Weather History Graph

Search for Another Location

Airport or City:

Astronomy

Sep. 07, 2019 Rise Set
Actual Time 6:30 AM CDT 7:22 PM CDT
Civil Twilight 6:02 AM CDT 7:50 PM CDT
Nautical Twilight 5:28 AM CDT 8:23 PM CDT
Astronomical Twilight 4:53 AM CDT 8:58 PM CDT
Moon 3:42 PM CDT (9/7) 12:18 AM CDT (9/7)
Length of Visible Light 13h 48m
Length of Day
12h 51m
Waxing Gibbous, 66% of the Moon is Illuminated
Sep 7
Waxing Gibbous
Sep 13
Full
Sep 21
Last Quarter
Sep 28
New
Oct 5
First Quarter

Hourly Weather History & Observations

Time (CDT) Temp. Dew Point Humidity Pressure Visibility Wind Dir Wind Speed Gust Speed Precip Events Conditions
12:56 AM 60.1 °F 57.0 °F 90% 29.68 in 10.0 mi North 4.6 mph - N/A   Clear
1:56 AM 55.9 °F 55.0 °F 97% 29.69 in 10.0 mi Calm Calm - N/A   Clear
2:56 AM 55.0 °F 54.0 °F 96% 29.68 in 10.0 mi Calm Calm - N/A   Clear
3:56 AM 54.0 °F 54.0 °F 100% 29.68 in 10.0 mi Calm Calm - N/A   Clear
4:56 AM 55.9 °F 55.9 °F 100% 29.68 in 10.0 mi Calm Calm - N/A   Clear
5:56 AM 54.0 °F 54.0 °F 100% 29.70 in 10.0 mi Calm Calm - N/A   Clear
6:36 AM 51.8 °F 51.8 °F 100% 30.09 in 0.8 mi Calm Calm - N/A   Clear
6:44 AM 53.6 °F 53.6 °F 100% 30.09 in 0.5 mi Calm Calm - N/A Fog Fog
6:46 AM 53.6 °F 53.6 °F 100% 30.09 in 1.0 mi Calm Calm - N/A   Clear
6:54 AM 51.8 °F 51.8 °F 100% 30.09 in 0.8 mi Calm Calm - N/A   Clear
6:56 AM 52.0 °F 52.0 °F 100% 29.70 in 0.8 mi Calm Calm - N/A   Clear
7:05 AM 53.6 °F 53.6 °F 100% 30.09 in 4.0 mi Calm Calm - N/A   Clear
7:56 AM 57.9 °F 57.9 °F 100% 29.71 in 10.0 mi WSW 3.5 mph - N/A   Clear
8:56 AM 60.1 °F 59.0 °F 96% 29.70 in 10.0 mi SSW 3.5 mph - N/A   Clear
9:56 AM 66.9 °F 60.1 °F 79% 29.69 in 10.0 mi West 4.6 mph - N/A   Clear
10:56 AM 70.0 °F 61.0 °F 73% 29.68 in 10.0 mi WSW 4.6 mph - N/A   Clear
11:56 AM 73.9 °F 62.1 °F 66% 29.67 in 10.0 mi WNW 8.1 mph - N/A   Scattered Clouds
12:56 PM 75.9 °F 61.0 °F 60% 29.66 in 10.0 mi WSW 5.8 mph - N/A   Partly Cloudy
1:56 PM 77.0 °F 61.0 °F 58% 29.65 in 10.0 mi West 6.9 mph - N/A   Clear
2:56 PM 77.0 °F 61.0 °F 58% 29.63 in 10.0 mi West 12.7 mph - N/A   Partly Cloudy
3:56 PM 78.1 °F 62.1 °F 58% 29.63 in 10.0 mi West 9.2 mph - N/A   Clear
4:56 PM 75.9 °F 62.1 °F 62% 29.62 in 10.0 mi West 8.1 mph - N/A   Scattered Clouds
5:56 PM 73.9 °F 62.1 °F 66% 29.62 in 10.0 mi NNW 8.1 mph - N/A   Overcast
6:56 PM 72.0 °F 64.0 °F 76% 29.64 in 10.0 mi North 4.6 mph - 0.00 in Rain Light Rain
7:56 PM 69.1 °F 64.0 °F 84% 29.65 in 10.0 mi North 5.8 mph - 0.00 in   Mostly Cloudy
8:56 PM 66.0 °F 63.0 °F 90% 29.65 in 10.0 mi NE 5.8 mph - 0.00 in Rain Light Rain
9:56 PM 64.0 °F 62.1 °F 93% 29.64 in 10.0 mi Calm Calm - 0.01 in Rain Light Rain
10:56 PM 64.0 °F 61.0 °F 90% 29.66 in 10.0 mi NE 5.8 mph - 0.00 in   Overcast
11:56 PM 64.0 °F 60.1 °F 87% 29.63 in 10.0 mi East 5.8 mph - N/A   Overcast